TimeMST,TemperatureF,Dew PointF,Humidity,Sea Level PressureIn,VisibilityMPH,Wind Direction,Wind SpeedMPH,Gust SpeedMPH,PrecipitationIn,Events,Conditions,WindDirDegrees,DateUTC
12:53 AM,45.0,21.0,39,29.91,10.0,WSW,8.1,21.9,N/A,,Clear,250,2012-11-17 07:53:00
1:53 AM,42.1,21.0,43,29.91,10.0,WSW,9.2,17.3,N/A,,Clear,250,2012-11-17 08:53:00
2:53 AM,42.1,21.9,45,29.91,10.0,West,10.4,-,N/A,,Clear,260,2012-11-17 09:53:00
3:53 AM,39.0,23.0,53,29.94,10.0,West,13.8,20.7,N/A,,Clear,260,2012-11-17 10:53:00
4:53 AM,37.0,21.9,54,29.96,10.0,West,13.8,-,N/A,,Clear,270,2012-11-17 11:53:00
5:53 AM,34.0,21.9,61,29.98,10.0,WSW,8.1,-,N/A,,Clear,250,2012-11-17 12:53:00
6:53 AM,32.0,21.9,66,30.02,10.0,West,6.9,-,N/A,,Clear,260,2012-11-17 13:53:00
7:53 AM,35.1,21.9,59,30.02,10.0,WSW,3.5,-,N/A,,Clear,240,2012-11-17 14:53:00
8:53 AM,45.0,23.0,42,30.02,10.0,Calm,Calm,-,N/A,,Clear,0,2012-11-17 15:53:00
9:53 AM,51.1,19.9,29,30.00,10.0,WNW,11.5,19.6,N/A,,Clear,290,2012-11-17 16:53:00
10:53 AM,52.0,21.9,31,29.97,10.0,West,10.4,-,N/A,,Clear,260,2012-11-17 17:53:00
11:53 AM,52.0,19.9,28,29.94,10.0,West,16.1,23.0,N/A,,Clear,280,2012-11-17 18:53:00
12:53 PM,53.1,19.9,27,29.94,10.0,West,12.7,19.6,N/A,,Clear,270,2012-11-17 19:53:00
1:53 PM,52.0,19.9,28,29.96,10.0,SW,8.1,-,N/A,,Clear,230,2012-11-17 20:53:00
2:53 PM,51.1,19.9,29,29.96,10.0,West,10.4,-,N/A,,Clear,260,2012-11-17 21:53:00
3:53 PM,48.0,19.9,33,29.99,10.0,WSW,5.8,-,N/A,,Clear,240,2012-11-17 22:53:00
4:53 PM,41.0,19.0,41,30.03,10.0,Calm,Calm,-,N/A,,Clear,0,2012-11-17 23:53:00
5:53 PM,37.0,19.0,48,30.06,10.0,Calm,Calm,-,N/A,,Clear,0,2012-11-18 00:53:00
6:53 PM,32.0,19.0,59,30.09,10.0,Calm,Calm,-,N/A,,Clear,0,2012-11-18 01:53:00
7:53 PM,30.0,19.0,64,30.08,10.0,Calm,Calm,-,N/A,,Clear,0,2012-11-18 02:53:00
8:53 PM,30.9,19.9,64,30.02,10.0,SW,3.5,-,N/A,,Clear,220,2012-11-18 03:53:00
9:53 PM,33.1,21.0,61,29.98,10.0,South,3.5,-,N/A,,Clear,190,2012-11-18 04:53:00
10:53 PM,37.9,21.9,53,29.94,10.0,SSW,4.6,-,N/A,,Clear,210,2012-11-18 05:53:00
11:53 PM,33.1,21.9,64,29.94,10.0,SW,3.5,-,N/A,,Clear,230,2012-11-18 06:53:00